Location: Ecklingerode
(51.5036°N, 10.3122°E)
Time: 01:50:17
(UTC+00:00)

Lacrosse 5 - Pass Details

Date: 29 October 2020
Orbit: 716 x 723 km, 57.0° (Epoch: 06 November)

Event Time Altitude Azimuth Distance (km) Brightness Sun altitude
Rises 19:55:13 0° 300° (WNW) 3,127 6.1 -36.9°
Reaches altitude 10° 19:57:37 10° 297° (WNW) 2,205 5.1 -37.2°
Enters shadow 19:59:23 22° 292° (WNW) 1,557 4.1 -37.5°
